Tracking 31027 objects as of 19-Jul-2025
HD Live streaming from Space Station
objects crossing your sky now

STARLINK-1759

Track STARLINK-1759 now!
10-day predictions
STARLINK-1759 is classified as:


NORAD ID: 46340
Int'l Code: 2020-062R
Perigee: 523.4 km
Apogee: 524.7 km
Inclination: 53.1 °
Period: 95.0 minutes
Semi major axis: 6895 km
RCS: Unknown
Launch date: September 3, 2020
Source: United States (US)
Launch site: AIR FORCE EASTERN TEST RANGE (AFETR)
Your satellite tracking list
STARLINK-5403
Track 1 satellite(s)




NASA's NSSDC Master Catalog

Two Line Element Set (TLE):
1 46340U 20062R   25199.69992169  .00031673  00000-0  16224-2 0  9991
2 46340  53.0561 346.1145 0000941 278.8419  81.2468 15.16341225269237
Source of the keplerian elements: AFSPC